Simultaneous Nadir Overpasses (SNOs) Predictions

Prediction of SNOs between NOAA-19 and TERRA Satellite Orbit:

Table of predicted SNOs for the next 14.0 days since TLE Epoch: 6/13/2020
Index Date (NOAA-19) Time (NOAA-19) Lat,Lon (NOAA-19) SZA (NOAA-19 ) Date (TERRA) Time (TERRA) Lat,Lon (TERRA) SZA (TERRA ) Distance(km) Time Diff (sec)
1 06/15/2020 02:15:01 -79.52, -5.69 122.53 06/15/2020 02:15:58 -79.50, -5.69 122.52 2.38 57
2 06/15/2020 03:06:00 79.48, 161.97 57.48 06/15/2020 03:05:24 79.50, 161.97 57.48 2.47 36
3 06/17/2020 08:39:19 -79.51,-101.62 122.60 06/17/2020 08:39:09 -79.49,-101.52 122.62 3.04 10
4 06/19/2020 14:12:36 79.52, -4.93 57.36 06/19/2020 14:12:52 79.52, -4.77 57.38 3.09 16
5 06/19/2020 15:03:32 -79.36, 163.84 122.63 06/19/2020 15:02:20 -79.48, 162.64 122.67 27.88 72
6 06/21/2020 19:45:55 -79.52, 91.81 122.65 06/21/2020 19:46:37 -79.51, 91.76 122.65 1.40 42
7 06/21/2020 20:36:53 79.51,-100.78 57.36 06/21/2020 20:36:03 79.51,-100.63 57.35 2.87 50
8 06/24/2020 01:19:11 79.54,-171.59 57.38 06/24/2020 01:20:20 79.53,-171.54 57.41 1.39 69
9 06/24/2020 02:10:13 -79.52, -4.17 122.62 06/24/2020 02:09:48 -79.50, -4.08 122.64 2.59 25




NCC Satellite Simultaneous Nadir Overpasses (SNOs) Prediction Service
